This demonstration page uses our WeatherBlox Daily Observations layout. Learn more.

41.55636, -103.73856

Hourly Observations for October 4, 2016

Temp ( °F °C ) Dew Point ( °F °C ) Humidity (%) Winds ( mph kmh ) Pressure ( in mb ) Visibility ( mi km ) Precip ( " mm )
12:53 am 00:53 Mostly Cloudy 55 12.8 29 -1.7 37 37 W 23 37 29.51 999 10 16.0934 0 0.0254
1:53 am 01:53 Mostly Clear 53 11.7 30 -1.1 41 41 W 14 22 29.57 1001 10 16.0934 0 0
2:53 am 02:53 Clear 52 11.1 29 -1.7 41 41 W 13 20 29.55 1001 10 16.0934 0 0
3:53 am 03:53 Clear 49 9.4 29 -1.7 46 46 WNW 6 9 29.56 1001 10 16.0934 0 0
4:53 am 04:53 Clear 50 10 29 -1.7 44 44 W 10 17 29.56 1001 10 16.0934 0 0
5:53 am 05:53 Clear 49 9.4 29 -1.7 46 46 W 14 22 29.58 1002 10 16.0934 0 0
6:53 am 06:53 Clear 49 9.4 29 -1.7 46 46 W 12 19 29.59 1002 10 16.0934 0 0
7:53 am 07:53 Sunny 51 10.6 30 -1.1 44 44 W 13 20 29.61 1003 10 16.0934 0 0
8:53 am 08:53 Sunny 54 12.2 30 -1.1 40 40 WNW 14 22 29.62 1003 10 16.0934 0 0
9:53 am 09:53 Sunny 59 15 31 -0.6 35 35 W 17 28 29.61 1003 10 16.0934 0 0
10:53 am 10:53 Sunny 60 15.6 31 -0.6 33 33 WNW 18 30 29.62 1003 10 16.0934 0 0
11:53 am 11:53 Mostly Sunny 62 16.7 31 -0.6 31 31 WNW 21 33 29.62 1003 10 16.0934 0 0
12:53 pm 12:53 Cloudy 63 17.2 31 -0.6 30 30 NW 18 30 29.61 1003 10 16.0934 0 0
1:53 pm 13:53 Cloudy 61 16.1 31 -0.6 32 32 W 17 28 29.62 1003 10 16.0934 0 0
2:53 pm 14:53 Partly Cloudy 63 17.2 30 -1.1 29 29 WNW 18 30 29.62 1003 10 16.0934 0 0
3:53 pm 15:53 Sunny 62 16.7 29 -1.7 29 29 WNW 15 24 29.64 1004 10 16.0934 0 0
4:53 pm 16:53 Cloudy 60 15.6 30 -1.1 32 32 NW 7 11 29.65 1004 10 16.0934 0 0
5:53 pm 17:53 Cloudy 57 13.9 34 1.1 42 42 WNW 5 7 29.69 1005 10 16.0934 0 0
6:53 pm 18:53 Cloudy 59 15 29 -1.7 32 32 W 12 19 29.7 1006 10 16.0934 0 0
7:53 pm 19:53 Cloudy 58 14.4 31 -0.6 36 36 NW 14 22 29.72 1006 10 16.0934 0 0
8:53 pm 20:53 Cloudy 54 12.2 36 2.2 51 51 WNW 8 13 29.75 1008 10 16.0934 0 0
9:53 pm 21:53 Clear 50 10 35 1.7 57 57 NNW 9 15 29.77 1008 10 16.0934 0 0
10:53 pm 22:53 Clear 45 7.2 36 2.2 71 71 NNW 8 13 29.81 1009 10 16.0934 0 0
11:53 pm 23:53 Clear 41 5 33 0.6 73 73 W 5 7 29.83 1010 10 16.0934 0 0

Powered by AerisWeather